TimeCST,TemperatureF,Dew PointF,Humidity,Sea Level PressureIn,VisibilityMPH,Wind Direction,Wind SpeedMPH,Gust SpeedMPH,PrecipitationIn,Events,Conditions,WindDirDegrees,DateUTC
12:15 AM,33.8,17.6,52,30.02,10.0,South,8.1,-,N/A,,Clear,190,2012-12-23 06:15:00
12:35 AM,33.8,19.4,56,30.02,10.0,SSW,5.8,-,N/A,,Clear,200,2012-12-23 06:35:00
1:15 AM,35.6,19.4,52,30.02,10.0,SW,8.1,-,N/A,,Clear,220,2012-12-23 07:15:00
1:35 AM,35.6,21.2,56,30.02,10.0,SSW,6.9,-,N/A,,Clear,210,2012-12-23 07:35:00
1:55 AM,35.6,21.2,56,30.01,10.0,SSW,6.9,-,N/A,,Clear,210,2012-12-23 07:55:00
2:15 AM,35.6,21.2,56,30.01,10.0,SW,8.1,-,N/A,,Clear,220,2012-12-23 08:15:00
2:35 AM,37.4,23.0,56,30.01,10.0,SW,9.2,-,N/A,,Clear,220,2012-12-23 08:35:00
2:55 AM,37.4,23.0,56,30.00,10.0,SW,9.2,-,N/A,,Clear,230,2012-12-23 08:55:00
3:15 AM,37.4,23.0,56,30.00,10.0,SW,9.2,-,N/A,,Mostly Cloudy,220,2012-12-23 09:15:00
3:35 AM,37.4,23.0,56,29.99,10.0,SW,9.2,-,N/A,,Scattered Clouds,220,2012-12-23 09:35:00
3:55 AM,37.4,24.8,60,29.99,10.0,SW,9.2,-,N/A,,Clear,230,2012-12-23 09:55:00
4:15 AM,39.2,24.8,56,29.98,10.0,SW,10.4,-,N/A,,Clear,220,2012-12-23 10:15:00
4:35 AM,39.2,24.8,56,29.98,10.0,SW,11.5,-,N/A,,Clear,220,2012-12-23 10:35:00
4:55 AM,39.2,24.8,56,29.98,10.0,SW,9.2,-,N/A,,Clear,220,2012-12-23 10:55:00
5:15 AM,39.2,24.8,56,29.97,10.0,SW,10.4,-,N/A,,Clear,220,2012-12-23 11:15:00
5:35 AM,39.2,24.8,56,29.97,10.0,SW,9.2,-,N/A,,Clear,220,2012-12-23 11:35:00
5:55 AM,39.2,24.8,56,29.98,10.0,SW,12.7,-,N/A,,Clear,220,2012-12-23 11:55:00
6:15 AM,39.2,24.8,56,29.98,10.0,SW,11.5,-,N/A,,Scattered Clouds,220,2012-12-23 12:15:00
6:35 AM,39.2,24.8,56,29.99,10.0,SW,11.5,-,N/A,,Mostly Cloudy,220,2012-12-23 12:35:00
6:55 AM,39.2,24.8,56,29.99,10.0,SW,11.5,-,N/A,,Mostly Cloudy,220,2012-12-23 12:55:00
7:15 AM,39.2,24.8,56,29.99,10.0,SW,9.2,-,N/A,,Overcast,230,2012-12-23 13:15:00
7:35 AM,39.2,24.8,56,29.99,10.0,SW,9.2,-,N/A,,Scattered Clouds,220,2012-12-23 13:35:00
7:55 AM,39.2,24.8,56,29.99,10.0,SW,8.1,-,N/A,,Scattered Clouds,220,2012-12-23 13:55:00
8:15 AM,39.2,26.6,61,29.99,10.0,SW,8.1,-,N/A,,Mostly Cloudy,230,2012-12-23 14:15:00
8:35 AM,42.8,26.6,53,29.99,10.0,SW,8.1,-,N/A,,Mostly Cloudy,230,2012-12-23 14:35:00
8:55 AM,42.8,28.4,57,29.99,10.0,SW,9.2,-,N/A,,Mostly Cloudy,220,2012-12-23 14:55:00
9:15 AM,42.8,28.4,57,30.00,10.0,SW,9.2,-,N/A,,Scattered Clouds,230,2012-12-23 15:15:00
9:35 AM,44.6,28.4,53,30.00,10.0,SSW,10.4,-,N/A,,Mostly Cloudy,210,2012-12-23 15:35:00
9:55 AM,46.4,30.2,53,29.99,10.0,SW,9.2,-,N/A,,Scattered Clouds,220,2012-12-23 15:55:00
10:15 AM,48.2,30.2,50,29.98,10.0,SSW,11.5,-,N/A,,Partly Cloudy,210,2012-12-23 16:15:00
10:35 AM,48.2,30.2,50,29.98,10.0,SW,12.7,-,N/A,,Partly Cloudy,220,2012-12-23 16:35:00
10:55 AM,50.0,32.0,50,29.98,10.0,SW,10.4,-,N/A,,Clear,230,2012-12-23 16:55:00
11:15 AM,50.0,32.0,50,29.97,10.0,SW,10.4,-,N/A,,Clear,220,2012-12-23 17:15:00
11:35 AM,53.6,33.8,47,29.96,10.0,SW,10.4,-,N/A,,Clear,230,2012-12-23 17:35:00
11:55 AM,53.6,33.8,47,29.95,10.0,SW,10.4,-,N/A,,Clear,230,2012-12-23 17:55:00
12:15 PM,53.6,35.6,51,29.94,10.0,SW,10.4,-,N/A,,Clear,230,2012-12-23 18:15:00
12:35 PM,53.6,33.8,47,29.93,10.0,West,8.1,-,N/A,,Clear,270,2012-12-23 18:35:00
12:55 PM,53.6,35.6,51,29.92,10.0,WSW,10.4,-,N/A,,Clear,240,2012-12-23 18:55:00
1:15 PM,53.6,35.6,51,29.92,10.0,WSW,9.2,-,N/A,,Clear,250,2012-12-23 19:15:00
1:35 PM,55.4,35.6,47,29.92,10.0,WSW,8.1,-,N/A,,Clear,250,2012-12-23 19:35:00
1:55 PM,55.4,35.6,47,29.92,10.0,SSW,5.8,-,N/A,,Clear,210,2012-12-23 19:55:00
2:15 PM,55.4,35.6,47,29.91,10.0,SSW,5.8,-,N/A,,Clear,200,2012-12-23 20:15:00
2:35 PM,57.2,35.6,44,29.90,10.0,SSW,6.9,-,N/A,,Clear,200,2012-12-23 20:35:00
2:55 PM,57.2,35.6,44,29.90,10.0,South,5.8,-,N/A,,Clear,170,2012-12-23 20:55:00
3:15 PM,55.4,35.6,47,29.90,10.0,South,5.8,-,N/A,,Clear,180,2012-12-23 21:15:00
3:35 PM,55.4,35.6,47,29.90,10.0,South,6.9,-,N/A,,Clear,170,2012-12-23 21:35:00
3:55 PM,53.6,35.6,51,29.89,10.0,South,5.8,-,N/A,,Clear,170,2012-12-23 21:55:00
4:15 PM,51.8,35.6,54,29.89,10.0,South,4.6,-,N/A,,Clear,180,2012-12-23 22:15:00
4:35 PM,48.2,35.6,62,29.90,10.0,Calm,Calm,-,N/A,,Clear,0,2012-12-23 22:35:00
4:55 PM,48.2,33.8,58,29.90,10.0,SSE,4.6,-,N/A,,Clear,160,2012-12-23 22:55:00
5:15 PM,44.6,30.2,57,29.91,10.0,Calm,Calm,-,N/A,,Clear,0,2012-12-23 23:15:00
5:35 PM,44.6,32.0,61,29.91,10.0,East,3.5,-,N/A,,Clear,100,2012-12-23 23:35:00
6:15 PM,41.0,30.2,65,29.91,10.0,Calm,Calm,-,N/A,,Mostly Cloudy,0,2012-12-24 00:15:00
6:35 PM,41.0,30.2,65,29.91,10.0,ESE,3.5,-,N/A,,Overcast,110,2012-12-24 00:35:00
6:55 PM,42.8,32.0,66,29.91,10.0,SE,4.6,-,N/A,,Overcast,140,2012-12-24 00:55:00
7:15 PM,42.8,32.0,66,29.91,10.0,SE,3.5,-,N/A,,Mostly Cloudy,130,2012-12-24 01:15:00
7:35 PM,42.8,30.2,61,29.90,10.0,ESE,3.5,-,N/A,,Mostly Cloudy,120,2012-12-24 01:35:00
7:55 PM,39.2,30.2,70,29.90,10.0,Calm,Calm,-,N/A,,Partly Cloudy,0,2012-12-24 01:55:00
8:15 PM,39.2,30.2,70,29.90,10.0,SE,4.6,-,N/A,,Mostly Cloudy,140,2012-12-24 02:15:00
8:55 PM,46.4,35.6,66,29.89,10.0,SE,6.9,-,N/A,,Overcast,140,2012-12-24 02:55:00
9:15 PM,46.4,35.6,66,29.88,10.0,SE,5.8,-,N/A,,Overcast,140,2012-12-24 03:15:00
9:35 PM,46.4,35.6,66,29.88,10.0,SSE,6.9,-,N/A,,Overcast,150,2012-12-24 03:35:00
9:55 PM,46.4,35.6,66,29.88,10.0,SSE,5.8,-,N/A,,Overcast,160,2012-12-24 03:55:00
10:15 PM,46.4,35.6,66,29.88,10.0,SSE,5.8,-,N/A,,Overcast,150,2012-12-24 04:15:00
10:35 PM,46.4,35.6,66,29.87,10.0,SSE,6.9,-,N/A,,Overcast,160,2012-12-24 04:35:00
10:55 PM,46.4,35.6,66,29.87,10.0,South,5.8,-,N/A,,Overcast,170,2012-12-24 04:55:00
11:15 PM,46.4,37.4,71,29.86,10.0,SSE,6.9,-,N/A,,Overcast,160,2012-12-24 05:15:00
11:35 PM,46.4,37.4,71,29.85,10.0,SSE,4.6,-,N/A,,Overcast,150,2012-12-24 05:35:00